Regional Weather Roundup
Issued by NWS Albany, NY

Home | Current Version | Previous Version | Text Only | Print | Product List | Glossary On
Versions: 1 2 3 4 5 6 7 8 9 10 11 12 13 14 15 16 17 18 19 20 21 22 23 24 25 26 27 28
000
ASUS41 KALY 090810
RWRALY

NEW YORK STATE HOURLY WEATHER ROUNDUP
NATIONAL WEATHER SERVICE ALBANY NY
300 AM EST FRI DEC 09 2016

NOTE: "FAIR" INDICATES FEW OR NO CLOUDS BELOW 12,000 FEET WITH NO
SIGNIFICANT WEATHER AND/OR NO OBSTRUCTIONS TO VISIBILITY.

NYZ032-033-038>043-046>054-057>066-NYZ062>081-082-084-090900-
EAST


CITY           SKY/WX    TMP DP  RH WIND       PRES   REMARKS
ALBANY         MOCLDY    30  20  66 SW5       29.94R WCI  25
GLENS FALLS    CLOUDY    31  19  61 SW8       29.88R WCI  23
POUGHKEEPSIE   MOCLDY    31  18  58 W12G21    29.99R WCI  22
NEWBURGH       PTCLDY    30  21  69 W14G25    29.98R WCI  20
MONTGOMERY     MOCLDY    32  17  54 W6        29.98R WCI  26
WHITE PLAINS   CLEAR     32  15  49 W13       29.97R WCI  22
ISLIP          CLEAR     31  19  61 W9        29.99R WCI  23
NEW YORK CITY  CLEAR     35  16  45 W20G28    30.03R WCI  24
CENTRAL PARK     N/A     34  16  47 MISG        N/A
$$

NYZ005>009-017-018-044>046-055-056-090900-
CENTRAL


CITY           SKY/WX    TMP DP  RH WIND       PRES   REMARKS
FULTON         CLOUDY    30  19  63 NW16      30.00R WCI  19
SYRACUSE       LGT SNOW  28  24  85 W10       30.00R FOG     WCI  19
ROME           LGT SNOW  28  25  88 W12       29.97R FOG     WCI  18
ELMIRA         CLOUDY    29  20  69 SW9       30.04R WCI  20
BINGHAMTON     FLURRIES  24  18  77 W15       29.94R WCI  11
MONTICELLO     CLOUDY    27  16  63 W13G18    29.94R WCI  16
$$

NYZ026>034-041>043-087-090900-
NORTH


CITY           SKY/WX    TMP DP  RH WIND       PRES   REMARKS
WATERTOWN      CLEAR     24  18  77 NW8       29.99R WCI  15
FORT DRUM      NOT AVBL
OGDENSBURG     CLOUDY    27  19  71 NW15      29.96R WCI  15
MASSENA        MOCLDY    26  16  65 W15       29.93R WCI  14
SARANAC LAKE   CLOUDY    20  14  77 W8        29.80R WCI  10
PLATTSBURGH    MOCLDY    28  16  60 NW12G23   29.87R WCI  18
$$

NYZ001>004-010>016-019>021-085-090900-
WEST


CITY           SKY/WX    TMP DP  RH WIND       PRES   REMARKS
NIAGARA FALLS  CLOUDY    29  22  75 W12       30.10R WCI  19
BUFFALO        PTCLDY    27  21  78 W10       30.09R WCI  17
DUNKIRK        CLOUDY    32  23  69 W15G25    30.12R WCI  22
JAMESTOWN      CLOUDY    23  19  86 SW12G17   30.06R WCI  12
WELLSVILLE     LGT SNOW  24  19  81 W10G21    30.01R WCI  14
ROCHESTER      LGT SNOW  29  26  89 W12       30.06R FOG     WCI  19
PENN YAN       CLOUDY    29  18  63 W9G25     30.03R WCI  20
$$

             KEY
       WCI = WIND CHILL INDEX
       VSB = VISIBILITY
       HX  = HEAT INDEX
$$




USA.gov is the U.S. government's official web portal to all federal, state and local government web resources and services.